Location: Chanteloup
(48.8560°N, 2.7390°E)
Time: 19:00:33
(UTC+00:00)

Cosmos 1758 Rocket - Pass Details

Date: 07 June 2022
Orbit: 601 x 635 km, 82.5° (Epoch: 28 June)

Event Time Altitude Azimuth Distance (km) Brightness Sun altitude
Exits shadow 02:49:32 - 188° (S) 2,367 6.0 -7.7°
Reaches altitude 10° 02:50:33 10° 188° (S) 1,952 5.6 -7.6°
Maximum altitude 02:54:52 89° 104° (ESE) 611 3.6 -7.2°
Drops below altitude 10° 02:59:13 10° 10° (N) 1,959 7.1 -6.7°
Sets 03:01:26 0° 10° (N) 2,866 8.0 -6.4°
